Location: Aalen
(48.8330°N, 10.1000°E)
Time: 18:35:48
(UTC+02:00)

CAS-6 - Pass Details

Date: 02 April 2023
Orbit: 610 x 632 km, 97.9° (Epoch: 04 June)

Event Time Altitude Azimuth Distance (km) Brightness Sun altitude
Exits shadow 22:17:43 19° 48° (NE) 1,503 ? -22.7°
Drops below altitude 10° 22:20:08 10° 15° (NNE) 2,010 ? -23.0°
Sets 22:22:49 0° 359° (N) 2,927 ? -23.4°
